DW5508 Weather Reports


Display with metric or nautical units.
time (UTC)temp
F
wind
direction
speed
MPH
gust
MPH
rain 1hr
in
rain 24hr
in
rain mn
in
humidity
%
barometer
mb
20260508203004 75 62 5.0 12.0 0.00 0.00 0.00 21 1016.5
20260508201502 74 327 4.0 11.0 0.00 0.00 0.00 22 1016.6
20260508200059 73 330 5.0 14.0 0.00 0.00 0.00 23 1016.8
20260508194558 73 28 6.0 10.0 0.00 0.00 0.00 23 1016.9
20260508193128 73 332 3.0 13.0 0.00 0.00 0.00 23 1017.0
20260508191557 73 285 4.0 12.0 0.00 0.00 0.00 24 1017.2
20260508190058 73 60 4.0 10.0 0.00 0.00 0.00 25 1017.2
20260508184615 72 332 4.0 12.0 0.00 0.00 0.00 25 1017.4
20260508183056 71 143 4.0 11.0 0.00 0.00 0.00 25 1017.3
20260508181552 71 304 3.0 10.0 0.00 0.00 0.00 27 1017.5
20260508180058 71 307 4.0 16.0 0.00 0.00 0.00 27 1017.5
20260508174606 71 343 4.0 11.0 0.00 0.00 0.00 27 1017.6
20260508173049 71 316 3.0 10.0 0.00 0.00 0.00 27 1017.5
20260508171607 70 11 3.0 11.0 0.00 0.00 0.00 30 1017.5
20260508170042 70 80 3.0 7.0 0.00 0.00 0.00 31 1017.5
20260508164541 69 13 2.0 9.0 0.00 0.00 0.00 35 1017.4
20260508163037 69 14 1.0 7.0 0.00 0.00 0.00 37 1017.4
20260508161543 68 22 1.0 5.0 0.00 0.00 0.00 35 1017.3
20260508160037 67 61 1.0 7.0 0.00 0.00 0.00 38 1017.2
20260508154535 67 46 1.0 4.0 0.00 0.00 0.00 36 1017.2
20260508153037 67 72 0.0 2.0 0.00 0.00 0.00 36 1017.1
20260508151539 67 37 0.0 1.0 0.00 0.00 0.00 37 1017.0
20260508150030 66 53 0.0 2.0 0.00 0.00 0.00 40 1017.0
20260508144527 66 63 0.0 1.0 0.00 0.00 0.00 37 1016.8
20260508143026 67 303 0.0 1.0 0.00 0.00 0.00 36 1016.8
20260508141523 66 303 0.0 0.0 0.00 0.00 0.00 39 1016.6
20260508140019 61 303 0.0 1.0 0.00 0.00 0.00 47 1016.5
20260508134514 57 303 0.0 0.0 0.00 0.00 0.00 50 1016.4
20260508133013 52 303 0.0 0.0 0.00 0.00 0.00 57 1016.3
20260508131510 50 303 0.0 1.0 0.00 0.00 0.00 62 1016.2
20260508130008 49 303 0.0 0.0 0.00 0.00 0.00 62 1016.1
20260508124507 48 303 0.0 0.0 0.00 0.00 0.00 59 1015.9
20260508123010 48 303 0.0 0.0 0.00 0.00 0.00 59 1015.7
20260508121506 48 303 0.0 0.0 0.00 0.00 0.00 60 1015.6
20260508120002 48 304 0.0 0.0 0.00 0.00 0.00 60 1015.5
20260508114608 48 337 0.0 0.0 0.00 0.00 0.00 61 1015.5
20260508113106 50 337 0.0 0.0 0.00 0.00 0.00 58 1015.4
20260508111602 50 337 0.0 0.0 0.00 0.00 0.00 58 1015.4
20260508110101 50 337 0.0 0.0 0.00 0.00 0.00 57 1015.3
20260508104558 50 337 0.0 0.0 0.00 0.00 0.00 58 1015.3
20260508103053 49 337 0.0 0.0 0.00 0.00 0.00 60 1015.1
20260508101550 50 337 0.0 0.0 0.00 0.00 0.00 60 1015.1
20260508100046 51 337 0.0 0.0 0.00 0.00 0.00 55 1015.0
20260508094545 51 337 0.0 0.0 0.00 0.00 0.00 55 1014.9
20260508093041 52 337 0.0 0.0 0.00 0.00 0.00 53 1014.8
20260508091604 53 339 0.0 0.0 0.00 0.00 0.00 49 1014.8
20260508090036 53 339 0.0 0.0 0.00 0.00 0.00 49 1014.7
20260508084536 54 339 0.0 0.0 0.00 0.00 0.00 47 1014.9
20260508083039 54 339 0.0 0.0 0.00 0.00 0.00 48 1014.9
20260508081532 55 339 0.0 1.0 0.00 0.00 0.00 46 1014.9
20260508080032 54 272 0.0 1.0 0.00 0.00 0.00 47 1014.7
20260508074531 53 207 0.0 1.0 0.00 0.00 0.00 50 1014.8
20260508073033 53 169 0.0 1.0 0.00 0.00 0.00 50 1014.8
20260508071532 53 53 0.0 0.0 0.00 0.00 0.00 49 1014.7
20260508070024 54 53 0.0 0.0 0.00 0.00 0.00 48 1014.5
20260508064530 55 53 0.0 0.0 0.00 0.00 0.00 47 1014.7
20260508063020 55 53 0.0 0.0 0.00 0.00 0.00 47 1014.6
20260508061518 56 53 0.0 0.0 0.00 0.00 0.00 46 1014.6
20260508060017 57 53 0.0 0.0 0.00 0.00 0.00 45 1014.5
20260508054515 57 53 0.0 0.0 0.00 0.00 0.00 44 1014.4
20260508053013 58 53 0.0 0.0 0.00 0.00 0.00 43 1014.2
20260508051513 58 53 0.0 0.0 0.00 0.00 0.00 43 1014.1
20260508050014 59 53 0.0 0.0 0.00 0.00 0.00 42 1014.2
20260508044512 60 240 0.0 1.0 0.00 0.00 0.00 39 1014.2
20260508043012 60 242 0.0 1.0 0.00 0.00 0.00 40 1014.1
20260508041518 60 225 0.0 1.0 0.00 0.00 0.00 40 1014.1
20260508040010 61 223 0.0 0.0 0.00 0.00 0.00 39 1014.0
20260508034516 62 224 0.0 1.0 0.00 0.00 0.00 39 1013.9
20260508033021 62 356 0.0 0.0 0.00 0.00 0.00 36 1013.8
20260508031508 64 356 0.0 0.0 0.00 0.00 0.00 35 1013.6
20260508030014 64 21 0.0 0.0 0.00 0.00 0.00 36 1013.6
20260508024510 66 22 0.0 0.0 0.00 0.00 0.00 31 1013.6
20260508023008 69 22 0.0 1.0 0.00 0.00 0.00 28 1013.4
20260508021507 71 6 0.0 2.0 0.00 0.00 0.00 26 1013.4
20260508020007 74 346 0.0 3.0 0.00 0.00 0.00 24 1013.3
20260508014509 75 358 0.0 3.0 0.00 0.00 0.00 24 1013.2
20260508013014 77 323 0.0 2.0 0.00 0.00 0.00 23 1013.2
20260508011501 76 105 0.0 1.0 0.00 0.00 0.00 23 1013.3
20260508010125 75 110 0.0 1.0 0.00 0.00 0.00 23 1013.3
20260508004559 74 231 0.0 1.0 0.00 0.00 0.00 25 1013.3
20260508003104 73 269 0.0 1.0 0.00 0.00 0.00 25 1013.6
20260508001559 73 38 0.0 3.0 0.00 0.00 0.00 24 1013.6
20260508000054 74 46 2.0 5.0 0.00 0.00 0.00 24 1013.8
20260507234553 74 350 2.0 6.0 0.00 0.00 0.00 24 1013.8
20260507233051 76 277 2.0 6.0 0.00 0.00 0.00 22 1013.9
20260507231549 76 292 1.0 6.0 0.00 0.00 0.00 24 1014.1
20260507230101 74 30 2.0 9.0 0.00 0.00 0.00 24 1014.4
20260507224544 75 360 2.0 7.0 0.00 0.00 0.00 23 1014.6
20260507223124 75 38 3.0 7.0 0.00 0.00 0.00 24 1014.9
20260507221539 75 304 2.0 8.0 0.00 0.00 0.00 23 1015.1
20260507220036 74 49 2.0 7.0 0.00 0.00 0.00 23 1015.2
20260507214539 75 300 3.0 7.0 0.00 0.00 0.00 24 1015.3
20260507213032 75 358 1.0 7.0 0.00 0.00 0.00 24 1015.5
20260507211530 74 297 1.0 8.0 0.00 0.00 0.00 23 1015.7
20260507210035 76 69 1.0 7.0 0.00 0.00 0.00 23 1016.0
20260507204532 76 339 1.0 9.0 0.00 0.00 0.00 25 1016.2
20260507203032 75 269 2.0 6.0 0.00 0.00 0.00 21 1016.3